This is the latest recevied weather packets stored in our database for station/object SHLBYV-WX. If no packets are shown the sender has not sent any weather packets the latest 10 day(s).
| Time | Temp. | Humidity | Pressure | Rain* | Wind** | Luminosity | Snow |
|---|---|---|---|---|---|---|---|
| 1777851069 | 11.67° C | 61% | 979.8 hPa | 0 mm | - | - | - |
| 1777850150 | 12.22° C | 61% | 979.8 hPa | 0 mm | - | - | - |
| 1777849274 | 12.78° C | 61% | 979.8 hPa | 0 mm | - | - | - |
| 1777848351 | 12.78° C | 58% | 980.6 hPa | 0 mm | - | - | - |
| 1777847470 | 12.78° C | 57% | 980.6 hPa | 0 mm | - | - | - |
| 1777846551 | 13.33° C | 57% | 980.6 hPa | 0 mm | - | - | - |
| 1777845690 | 12.78° C | 57% | 980.6 hPa | 0 mm | - | - | - |
| 1777844750 | 12.78° C | 56% | 981.1 hPa | 0 mm | - | - | - |
| 1777843868 | 13.33° C | 54% | 980.9 hPa | 0 mm | - | - | - |
| 1777842950 | 13.89° C | 54% | 980.9 hPa | 0 mm | - | - | - |
| 1777842080 | 13.33° C | 54% | 980.9 hPa | 0 mm | - | - | - |
| 1777841150 | 13.89° C | 52% | 982 hPa | 0 mm | - | - | - |
| 1777840269 | 14.44° C | 54% | 981.6 hPa | 0 mm | - | - | - |
| 1777839350 | 13.89° C | 54% | 981.6 hPa | 0 mm | - | - | - |
| 1777838481 | 13.89° C | 54% | 981.6 hPa | 0 mm | - | - | - |
| 1777837550 | 13.89° C | 55% | 982.3 hPa | 0 mm | - | - | - |
| 1777836673 | 13.89° C | 55% | 982.3 hPa | 0 mm | - | - | - |
| 1777835752 | 13.89° C | 55% | 982.3 hPa | 0 mm | - | - | - |
| 1777834883 | 13.89° C | 55% | 982.3 hPa | 0 mm | - | - | - |
| 1777833952 | 13.89° C | 47% | 982.9 hPa | 0 mm | - | - | - |
| 1777833360 | 14.44° C | 47% | 982.9 hPa | 0 mm | - | - | - |
| 1777832150 | 14.44° C | 51% | 983.1 hPa | 0 mm | - | - | - |
| 1777831286 | 14.44° C | 51% | 983.1 hPa | 0 mm | - | - | - |
| 1777830349 | 14.44° C | 47% | 983.7 hPa | 0 mm | - | - | - |
| 1777829470 | 14.44° C | 47% | 983 hPa | 0 mm | - | - | - |
* Rain latest hour (hover to see other rain measurements)
** Current wind speed in m/s (hover to see current wind gust speed)